Location: Arrien
(42.8963°N, 1.0429°E)
Time: 09:13:57
(UTC+00:00)

ISS - Pass Details

Date: 18 February 2026
Orbit: 416 x 426 km, 51.6° (Epoch: 9 March)

Event Time Altitude Azimuth Distance (km) Brightness Sun altitude
Exits shadow 05:27:49 29° 311° (NW) 792 -2.8 -15.5°
Maximum altitude 05:28:32 33° 338° (NNW) 732 -2.8 -15.4°
Drops below altitude 10° 05:31:36 10° 44° (NE) 1,494 -0.4 -14.8°
Sets 05:33:50 0° 55° (NE) 2,359 0.9 -14.4°
